User: anonymous   Login
Location: Dappach
(48.9767°N, 9.6998°E)
Time: 09:01:28
(UTC+00:00)
Language:

SL-8 R/B - Orbit

View from above orbital plane
View from above orbital plane
View from above satellite
View from above satellite

Ground track
Ground track

The orbit data is extracted from the following two-line orbital elements,

1 33066U 08031G   24197.87852041  .00000737  00000-0  14969-3 0  9997
2 33066  48.4423 248.3766 0007984 255.5974 104.4051 14.71369407863134
Epoch (UTC): 15 July 2024 21:05:04
Eccentricity: 0.0007984
inclination: 48.4423°
perigee height: 651 km
apogee height: 662 km
right ascension of ascending node: 248.3766°
argument of perigee: 255.5974°
revolutions per day: 14.71369407
mean anomaly at epoch: 104.4051°
orbit number at epoch: 86313

The dashed part of the orbit path shows where the satellite is in the earth's shadow,  

DLR